GFSGL_700_rhum_351.txt.gz
RH
80 80 83 95 100 99 97 99 100 100 100 99 100 100 98 100 94 86 99 100 97 93 89 81 74 72 65 52 48 48 50 54 61 73 76 80 83 82 85 91 93 92 87
88 86 74 82 87 98 99 93 99 99 100 99 99 99 100 100 99 98 99 99 100 98 95 83 82 72 63 57 54 54 54 56 61 66 73 80 81 85 89 90 90 87 85
92 86 74 77 100 100 95 100 100 99 99 99 99 98 99 99 100 99 99 100 100 100 100 96 87 78 72 68 65 64 63 64 66 68 74 80 84 86 88 88 87 85 83
83 79 82 98 100 98 97 98 99 99 99 99 99 99 99 99 98 88 95 96 100 99 100 100 87 80 73 71 70 70 70 73 77 80 82 85 87 87 87 87 87 87 87
79 91 100 100 100 100 100 99 99 98 99 99 99 99 98 99 99 99 99 99 98 98 98 90 81 77 75 74 73 75 76 76 77 79 81 82 84 85 85 85 85 85 86
79 80 92 96 94 96 97 98 99 99 99 99 98 99 98 98 98 98 98 98 97 96 94 85 80 78 74 74 71 68 65 62 64 66 69 72 72 73 73 73 72 69 66
98 98 97 99 98 98 99 100 98 98 98 98 98 98 98 98 99 97 98 97 97 96 89 82 76 70 63 57 50 45 44 44 47 51 55 58 60 61 63 64 65 66 64
97 98 97 97 98 97 96 97 97 96 97 98 97 97 97 96 98 96 97 96 96 91 74 69 60 42 33 32 32 33 36 39 42 47 52 54 56 59 60 60 59 59 59
98 95 94 96 95 97 97 96 96 96 97 96 96 97 97 96 97 96 96 96 95 80 54 38 34 31 30 30 31 34 38 41 46 50 53 54 57 59 59 60 59 58 56
98 97 98 98 97 96 96 96 96 96 97 96 96 96 96 96 96 96 96 94 63 39 33 33 32 32 32 34 38 41 43 46 51 54 57 60 61 60 58 56 52 45 41
96 96 96 96 96 96 96 96 96 96 96 96 96 96 96 96 95 92 75 48 39 35 33 34 33 36 40 43 44 45 44 47 54 59 59 56 53 50 46 42 31 12 5
95 96 96 96 96 96 96 96 96 96 96 96 95 90 83 70 56 47 43 40 37 36 38 38 42 44 40 38 42 45 48 53 59 57 52 48 45 42 21 6 6 9 15
95 95 96 96 96 96 96 95 94 94 88 78 74 71 60 52 49 44 40 40 43 44 43 41 36 34 34 36 43 49 48 51 50 48 45 41 18 6 6 11 18 23 25
98 97 96 96 95 94 94 94 94 86 71 62 56 52 51 50 48 46 49 47 44 39 37 36 37 37 40 46 49 51 49 49 46 39 16 6 7 12 18 23 25 25 23
85 71 68 66 68 70 66 59 56 54 54 54 54 52 51 46 44 41 38 37 39 42 42 44 45 47 48 49 51 53 43 21 7 6 9 15 22 25 24 26 26 25 25
55 50 48 45 42 41 40 40 39 38 37 39 39 38 39 41 38 40 42 44 45 46 47 48 50 52 51 38 16 9 9 15 20 27 30 30 26 25 27 28 28 29 29
50 47 45 44 43 42 41 40 40 40 41 42 43 44 45 46 49 49 49 51 53 52 46 51 44 20 14 18 26 30 32 33 33 32 28 25 26 29 30 32 33 34 36
52 48 48 48 47 46 46 47 45 44 44 46 47 48 50 52 54 54 55 54 43 31 17 15 19 23 25 25 27 30 32 32 30 27 27 30 32 34 36 39 42 46 48
57 56 57 53 50 50 51 48 46 46 46 39 27 28 43 49 42 33 21 14 15 18 20 21 20 19 21 25 30 33 33 32 30 30 33 36 39 42 46 51 55 57 56
70 69 63 61 60 60 55 51 52 54 47 15 10 16 16 12 13 14 18 20 21 20 19 19 21 25 30 34 36 37 37 36 34 35 38 41 45 50 56 62 64 63 63
82 78 72 68 67 63 57 57 60 64 33 7 7 8 10 15 20 22 21 18 17 16 16 18 22 28 32 35 37 39 40 41 40 39 41 44 48 54 66 70 73 70 68
83 81 78 76 74 68 67 67 76 75 25 8 9 13 18 21 20 18 16 15 16 19 22 24 25 24 23 22 22 22 25 31 39 40 40 43 49 57 72 78 79 74 70
93 92 89 80 79 81 75 77 88 80 33 12 13 16 18 18 17 16 15 16 17 18 17 14 12 10 10 11 12 13 14 16 24 32 37 42 48 64 78 86 85 74 71
74 87 88 87 89 90 82 93 97 87 52 23 17 17 17 17 16 15 14 13 12 11 10 10 10 11 12 17 18 17 17 17 19 28 36 41 50 71 83 86 80 73 78
72 75 82 87 90 83 89 100 100 95 71 45 32 26 24 22 20 19 16 13 12 11 12 15 33 57 58 43 32 25 25 24 25 32 38 53 68 74 76 75 73 74 88
58 64 68 71 74 87 97 100 100 100 92 71 54 44 35 29 25 20 16 15 20 51 82 91 92 91 87 78 64 52 42 34 33 36 46 61 61 66 76 75 73 92 99

GFSGL_700_rhum_357.txt.gz
RH
58 51 76 79 76 94 90 99 100 98 100 98 100 99 99 100 99 99 99 100 94 99 99 99 90 88 79 76 72 69 69 66 61 55 47 45 46 49 52 56 60 61 62
54 84 84 72 94 77 84 88 90 76 99 98 99 99 100 99 100 100 99 100 99 100 100 100 100 96 79 82 84 81 78 68 61 58 55 55 55 55 57 59 60 61 62
59 75 85 86 68 79 94 99 92 94 99 99 99 99 100 99 100 99 100 99 100 99 100 98 98 99 99 92 82 81 81 73 68 66 62 59 60 60 60 62 64 68 68
56 95 72 96 65 80 97 84 98 100 100 98 100 97 99 100 99 100 99 99 99 100 98 100 99 100 99 98 97 84 88 77 73 67 62 59 61 60 62 65 66 66 64
69 81 100 90 74 93 89 78 82 79 85 86 86 99 99 99 99 99 99 99 99 99 99 100 100 100 98 99 100 97 99 90 77 68 66 63 63 62 63 62 57 54 51
99 89 96 100 98 80 80 85 93 84 92 88 93 99 98 99 98 98 99 100 99 99 99 99 98 100 100 99 98 100 98 90 75 68 66 62 58 52 48 43 41 38 34
99 100 99 96 99 99 90 94 89 98 88 99 100 100 100 100 100 99 96 99 99 98 98 99 98 98 98 98 98 97 97 83 71 63 55 45 33 29 26 26 27 29 30
99 99 99 98 100 100 98 99 91 94 95 99 99 100 100 100 100 100 100 100 98 98 98 98 97 97 97 97 98 97 94 76 59 40 28 25 25 24 23 25 27 28 30
89 93 95 96 96 92 93 91 98 99 100 100 100 100 99 98 100 100 99 99 98 98 97 97 97 96 96 96 97 95 76 47 29 26 26 25 24 24 24 25 24 27 29
90 97 99 96 99 96 96 100 100 100 100 99 97 99 99 99 99 100 97 97 97 97 97 95 96 97 96 96 95 72 36 29 28 28 27 23 24 26 23 22 23 27 33
63 67 91 96 98 93 90 97 99 99 99 95 94 93 94 96 97 98 96 96 96 97 96 97 96 96 95 94 88 45 36 34 30 27 26 25 24 22 22 25 29 33 35
88 84 86 83 85 96 99 99 95 96 97 96 96 96 96 96 95 96 96 96 96 96 96 96 96 95 93 93 90 85 43 34 32 29 26 25 23 23 27 29 30 30 30
97 96 99 95 95 97 99 99 98 98 97 97 100 99 98 96 95 95 95 96 97 96 96 96 95 95 95 93 64 42 38 36 31 27 27 27 27 30 31 32 33 32 17
100 100 98 96 96 99 100 99 97 98 97 97 97 97 98 95 96 97 97 96 96 95 95 95 94 92 68 48 44 42 38 32 31 31 30 30 33 34 37 37 20 8 10
100 99 98 96 92 94 98 99 97 96 96 97 96 97 99 97 96 96 95 96 95 95 94 94 77 54 51 48 40 35 35 34 34 34 35 37 38 38 16 10 14 23 28
95 93 95 95 95 93 95 96 93 93 95 94 93 96 99 96 92 93 95 95 92 79 64 59 56 49 42 37 36 37 37 38 39 40 41 40 20 13 21 28 28 28 27
95 95 94 95 95 96 97 98 98 98 97 97 96 95 96 89 69 63 61 60 56 47 47 46 43 41 40 40 43 43 42 44 45 43 30 16 25 28 28 29 28 27 28
93 94 96 94 95 95 95 94 92 91 91 82 65 54 48 42 39 42 40 38 39 36 34 45 49 47 46 46 47 46 50 50 38 19 21 26 26 28 30 31 31 32 32
97 94 85 63 55 52 48 44 41 40 43 45 45 45 41 41 40 42 43 39 36 38 41 45 52 53 56 60 55 49 39 21 19 22 23 24 28 31 32 34 35 36 37
96 94 88 80 61 50 50 49 48 49 51 52 52 51 49 48 43 43 44 41 37 36 38 41 52 56 57 52 37 20 18 20 21 21 24 29 32 34 36 36 37 36 37
76 78 86 82 69 61 62 61 60 58 60 57 57 56 52 46 44 42 43 44 37 21 21 35 41 32 20 16 18 20 21 20 20 23 27 27 27 29 29 25 19 17 17
88 81 75 70 73 70 69 69 69 68 67 67 69 67 60 52 50 52 53 52 29 10 12 15 14 16 19 21 21 19 18 17 17 20 23 24 21 15 12 11 12 13 16
79 89 87 81 80 84 83 79 80 80 82 79 79 79 73 64 59 61 63 63 26 9 9 10 15 19 21 19 16 15 17 19 20 18 14 11 11 11 12 20 38 40 32
34 52 74 90 91 92 90 87 90 92 91 89 87 86 85 77 69 68 69 75 46 11 11 14 18 20 18 15 14 15 15 14 13 12 12 11 14 45 78 81 74 66 56
60 44 31 36 57 69 83 94 97 100 100 99 99 98 96 86 78 76 76 88 73 23 15 16 17 18 17 16 17 17 17 16 14 13 24 69 90 94 96 95 94 84 70
91 73 68 64 49 36 40 57 69 82 98 100 100 100 100 96 93 91 94 99 93 66 42 30 29 30 29 28 29 27 23 20 28 76 89 92 94 96 99 98 94 83 69

GFSGL_700_rhum_363.txt.gz
RH
65 52 57 59 57 63 89 90 97 98 99 98 98 94 96 100 99 97 96 88 82 89 81 80 81 83 81 78 76 69 67 68 67 68 71 67 63 64 64 60 53 48 48
92 66 63 65 59 60 66 81 73 96 85 100 100 100 100 100 99 100 100 100 98 100 93 95 91 99 99 96 86 84 76 77 72 69 72 72 70 71 68 61 58 57 55
89 96 74 68 85 54 98 91 99 88 90 92 90 94 94 99 100 97 99 100 100 100 100 100 100 99 100 100 100 94 91 88 86 83 74 79 78 75 73 67 64 59 57
79 99 88 87 95 57 88 85 89 95 91 89 97 88 100 100 99 90 85 99 97 91 95 99 100 99 99 100 99 100 98 99 98 91 84 82 78 78 78 72 65 59 58
99 99 95 96 97 62 80 56 63 96 82 96 99 83 99 90 97 99 97 98 94 99 100 100 99 99 99 100 99 100 99 99 99 91 91 92 84 85 86 77 70 63 59
97 98 100 97 98 71 69 58 85 68 67 58 63 75 88 95 99 90 92 97 100 99 99 100 100 99 99 99 99 99 99 99 99 98 98 98 95 89 90 89 78 66 61
99 98 99 99 99 99 69 70 70 62 68 86 91 100 98 93 91 99 97 100 100 98 100 99 99 99 99 99 99 99 99 99 99 98 98 98 98 97 97 92 79 66 57
90 99 100 99 92 99 80 74 86 82 82 94 86 100 90 100 99 96 100 96 90 92 95 99 99 99 98 99 99 99 99 98 98 98 97 98 97 98 97 93 73 58 41
100 100 98 100 100 94 98 92 98 79 77 98 96 100 100 100 100 99 90 96 99 96 100 99 100 99 99 99 99 98 99 97 98 98 97 97 97 98 97 95 69 37 28
100 100 100 99 100 99 100 96 99 100 94 99 94 94 98 99 98 100 100 96 89 87 99 100 100 100 100 100 99 100 98 97 96 96 97 97 96 96 96 93 60 47 35
99 98 99 99 99 99 96 98 99 99 98 100 100 100 100 99 98 100 98 100 100 97 92 100 99 98 99 97 99 99 98 96 96 98 97 97 96 95 95 95 92 90 33
96 96 98 98 100 99 100 100 99 99 100 98 99 100 99 100 98 100 100 96 95 100 99 97 98 96 97 98 97 96 96 97 97 96 96 96 95 94 95 95 84 36 21
94 94 95 96 97 97 97 98 98 99 99 98 98 98 99 99 98 98 99 100 95 100 100 100 97 96 96 96 96 94 94 95 96 96 96 96 95 94 94 94 56 26 22
97 97 97 97 96 97 98 96 97 98 98 97 98 98 97 98 97 97 97 96 95 95 95 95 94 94 95 96 97 97 98 99 97 95 95 95 96 92 70 44 38 27 28
95 95 95 94 95 96 95 96 96 96 96 97 96 98 97 97 97 97 96 98 96 97 99 97 94 95 94 94 95 96 97 97 95 95 94 91 88 81 54 33 30 31 32
96 96 96 96 96 96 96 96 95 96 95 96 97 96 96 96 96 100 97 97 94 93 97 98 96 96 97 97 98 98 97 97 96 95 93 82 51 36 32 32 33 34 38
96 97 97 96 96 96 95 97 95 94 96 96 94 96 96 96 98 97 94 96 96 92 90 94 95 96 97 98 96 94 95 96 89 68 53 43 39 39 36 37 40 44 41
97 96 96 96 97 97 95 96 96 95 95 95 96 96 96 96 96 96 96 95 97 96 95 96 98 100 97 94 92 85 75 62 50 45 45 46 45 43 41 45 49 44 20
96 96 99 99 98 97 94 95 95 96 96 96 97 97 96 96 96 96 96 97 98 97 97 96 96 92 85 65 46 45 42 42 44 45 43 45 48 51 52 54 43 21 21
95 96 96 96 96 96 96 96 96 96 96 96 95 94 96 95 95 95 96 97 96 96 95 80 60 48 42 40 40 40 40 40 42 45 46 46 50 52 52 37 22 21 22
94 94 95 94 96 96 95 96 98 96 96 97 97 96 97 97 96 96 94 94 94 92 82 68 50 41 38 39 39 37 34 32 30 31 41 48 49 40 27 21 22 22 21
91 94 92 89 95 94 96 96 94 93 95 93 93 87 76 68 64 60 56 51 48 48 48 47 44 43 43 44 43 40 35 28 23 27 35 36 26 21 21 22 22 19 16
44 80 100 96 90 87 93 93 94 94 95 94 88 76 69 59 58 55 56 56 57 58 60 56 53 51 50 50 50 48 41 32 18 18 19 20 21 22 22 20 16 15 16
92 52 46 80 100 100 94 87 86 93 97 94 94 91 86 81 76 68 68 70 72 70 68 67 67 66 63 62 58 57 54 37 15 13 15 17 19 20 18 16 16 16 16
98 99 96 61 45 55 95 100 96 88 86 85 86 87 88 90 88 85 86 90 88 87 88 86 83 82 81 76 72 70 70 59 27 14 16 18 18 18 18 18 19 22 25
99 98 98 100 99 78 50 42 59 88 97 97 94 92 92 95 96 96 96 98 99 99 100 100 97 98 98 92 88 88 90 91 60 24 18 19 21 23 29 34 39 41 38

GFSGL_700_rhum_366.txt.gz
RH
53 65 98 88 81 81 78 77 76 90 92 83 77 71 75 80 79 85 99 100 100 99 88 85 81 79 82 78 79 80 76 71 69 63 68 69 68 68 65 63 62 63 61
73 77 99 98 80 76 74 73 81 85 98 89 92 100 90 95 88 85 99 99 100 99 96 83 72 78 87 90 89 89 91 86 80 75 71 74 76 72 70 68 69 69 65
82 84 99 84 90 98 83 87 87 84 78 83 99 96 90 100 100 100 100 100 100 100 99 100 98 94 94 96 100 98 95 98 96 92 87 82 84 84 78 75 74 70 71
65 61 72 98 98 86 92 78 72 73 83 100 90 98 94 100 96 99 98 97 100 98 98 100 100 100 100 99 100 100 100 99 100 98 96 97 96 95 90 82 75 76 77
58 61 75 92 99 97 95 81 85 77 80 89 99 95 78 94 91 96 89 95 90 93 86 87 86 96 88 87 98 100 100 100 100 100 99 98 99 98 98 94 85 80 80
68 60 60 99 91 100 97 98 95 88 94 82 90 97 84 100 93 96 94 100 96 97 100 91 93 90 100 100 100 99 100 99 99 99 99 100 98 99 98 98 97 94 90
99 76 64 81 95 92 93 100 100 89 93 91 72 74 88 100 99 100 99 86 100 100 98 95 100 100 100 98 100 99 99 99 98 98 99 99 100 99 98 99 99 99 96
96 100 97 77 73 78 92 100 100 99 90 83 62 88 88 81 72 75 75 90 100 98 100 100 100 100 100 100 99 100 100 98 94 94 99 99 100 98 98 98 97 97 98
100 100 94 100 97 100 99 100 100 98 96 81 79 80 70 74 81 92 100 100 99 100 94 100 100 100 98 100 100 100 100 98 96 98 100 100 97 97 97 97 97 97 97
99 88 99 100 99 98 100 99 95 96 99 99 89 78 97 98 97 83 100 96 100 98 100 99 93 86 98 100 100 100 100 99 100 100 99 98 97 97 96 97 97 97 96
98 99 99 99 99 100 99 100 99 97 98 92 100 98 98 100 90 95 99 99 99 98 86 98 100 100 98 96 99 99 99 99 99 100 98 97 98 97 96 96 96 95 94
95 97 97 98 99 98 97 100 99 97 99 99 99 98 98 100 98 98 98 98 99 100 100 100 95 95 100 98 98 99 99 98 97 96 96 96 96 96 96 95 96 96 95
95 96 96 97 96 98 100 100 98 99 99 100 99 97 99 100 100 100 99 98 100 100 100 100 99 99 99 100 100 98 97 97 97 96 96 96 96 96 96 97 96 94 95
95 96 95 95 98 96 93 97 98 100 100 100 100 100 98 99 98 99 99 98 100 99 98 98 96 97 100 100 98 95 97 97 96 96 97 97 97 96 95 96 97 95 89
94 95 96 96 96 98 96 97 96 96 96 98 97 98 98 98 99 99 98 98 98 97 98 98 97 97 99 98 97 98 96 94 94 96 98 100 99 96 95 95 92 86 76
94 95 96 96 96 95 96 97 96 97 96 94 97 97 96 96 96 97 97 98 95 97 96 95 93 98 98 97 96 97 97 96 96 99 99 98 96 96 95 89 64 46 39
95 95 96 95 96 94 95 96 94 96 96 96 96 96 96 95 97 95 97 96 96 96 96 95 96 95 96 96 97 97 97 100 100 98 97 97 97 95 75 52 42 38 36
96 95 95 97 96 96 95 96 96 96 96 96 95 96 96 95 96 96 96 95 95 96 95 96 97 96 95 96 96 98 97 98 98 96 96 95 87 60 43 39 40 41 39
96 96 96 97 95 95 96 96 95 95 96 95 96 96 97 96 96 96 95 96 97 96 95 96 96 94 94 95 96 97 97 96 95 86 65 50 45 40 42 42 45 44 41
97 97 96 97 96 95 96 96 96 95 95 96 97 96 96 96 95 94 96 97 98 96 96 96 95 94 94 96 97 94 89 70 47 41 42 43 43 42 41 42 46 49 48
86 98 98 97 96 96 96 97 97 97 96 97 96 96 97 97 97 96 96 96 96 96 97 98 98 98 93 77 56 48 46 46 40 40 40 37 33 29 29 29 35 39 40
72 57 95 97 97 98 97 97 97 97 96 96 97 97 98 98 98 96 94 95 96 96 96 97 94 93 87 77 68 58 44 41 41 40 38 35 31 27 25 26 33 31 26
55 86 54 83 97 97 96 97 97 97 97 96 96 97 98 99 98 97 96 96 92 88 80 73 62 57 54 50 49 47 44 46 48 48 45 41 35 27 21 17 18 20 22
64 64 95 78 50 92 97 96 97 97 97 98 97 96 97 96 97 97 97 90 77 69 65 61 59 58 59 59 58 59 58 56 54 56 56 54 48 39 25 17 16 18 20
94 84 86 98 97 59 50 93 98 96 96 97 97 97 97 97 95 94 91 88 80 76 77 75 74 76 79 81 81 79 77 78 73 69 68 66 67 60 38 22 18 20 21
94 98 95 98 100 100 97 64 48 80 99 98 96 96 96 97 98 98 95 93 94 92 88 86 87 89 92 92 92 94 97 94 91 86 86 82 82 86 71 38 24 27 32